Location: Baili�vre
(50.0696°N, 4.2409°E)
Time: 16:30:33
(UTC+00:00)

GP-B - Pass Details

Date: 08 August 2020
Orbit: 632 x 635 km, 89.8° (Epoch: 18 September)

Event Time Altitude Azimuth Distance (km) Brightness Sun altitude
Rises 21:20:23 0° 357° (N) 2,946 7.5 -16.5°
Reaches altitude 10° 21:22:39 10° 352° (N) 2,033 6.6 -16.7°
Maximum altitude 21:26:58 50° 278° (W) 809 3.9 -17.1°
Enters shadow 21:30:43 13° 204° (SSW) 1,803 5.1 -17.5°
